Weather History for Akron, OH

Change the Weather History Date:

Saturday, August 10, 2013

  Actual Average (KCAK) Record (KCAK)
Temperature  
Mean Temperature 70 °F 71 °F  
Max Temperature 81 °F 81 °F 96 °F (1911)
Min Temperature 61 °F 61 °F 47 °F (1972)
Degree Days  
Heating Degree Days 0 0  
Month to date heating degree days 0  
Since 1 June heating degree days 55  
Since 1 July heating degree days 6  
Cooling Degree Days 6 6  
Month to date cooling degree days 69  
Year to date cooling degree days 468  
Since 1 June cooling degree days 426  
Growing Degree Days 20 (Base 50)    
Moisture  
Dew Point 58 °F    
Average Humidity 68    
Maximum Humidity 84    
Minimum Humidity 52    
Precipitation  
Precipitation 0.03 in 0.12 in 2.02 in (1998)
Month to date precipitation 1.21  
Year to date precipitation 24.85  
Snow  
Snow 0.00 in 0.00 in - ()
Month to date snowfall 0.0  
Since 1 June snowfall 0.0  
Since 1 July snowfall 0.0  
Snow Depth -    
Sea Level Pressure  
Sea Level Pressure 30.08 in    
Wind  
Wind Speed 2 mph (NE)    
Max Wind Speed 9 mph    
Max Gust Speed 17 mph    
Visibility 10 miles    
Events Rain    
T = Trace of Precipitation, MM = Missing Value Source: NWS Daily Summary

Daily Weather History Graph

Daily Weather History Graph

Search for Another Location

Airport:

Trip Planner

Search our weather history database for the weather conditions in past years. The results will help you decide how hot, cold, wet, or windy it might be!

Date:

Astronomy

Aug. 10, 2013 Rise Set
Actual Time 6:30 AM EDT 8:30 PM EDT
Civil Twilight 6:00 AM EDT 9:00 PM EDT
Nautical Twilight 5:24 AM EDT 9:37 PM EDT
Astronomical Twilight 4:44 AM EDT 10:16 PM EDT
Moon 10:18 AM EDT (8/10) 10:08 PM EDT (8/10)
Length of Visible Light 14h 59m
Length of Day
14h 00m
Waxing Crescent, 14% of the Moon is Illuminated
Aug 10
Waxing Crescent
Aug 14
First Quarter
Aug 20
Full
Aug 28
Last Quarter
Sep 5
New

Hourly Weather History & Observations

Time (EDT) Temp. Heat Index Dew Point Humidity Pressure Visibility Wind Dir Wind Speed Gust Speed Precip Events Conditions
12:54 AM 62.1 °F - 54.0 °F 75% 30.04 in 10.0 mi Calm Calm - N/A   Clear
1:54 AM 63.0 °F - 55.9 °F 78% 30.04 in 10.0 mi Calm Calm - N/A   Clear
2:54 AM 63.0 °F - 55.9 °F 78% 30.04 in 10.0 mi Calm Calm - N/A   Clear
3:54 AM 63.0 °F - 54.0 °F 72% 30.05 in 10.0 mi Calm Calm - N/A   Clear
4:54 AM 63.0 °F - 54.0 °F 72% 30.05 in 10.0 mi Calm Calm - N/A   Clear
5:54 AM 61.0 °F - 55.9 °F 83% 30.06 in 10.0 mi Calm Calm - N/A   Clear
6:54 AM 61.0 °F - 55.9 °F 83% 30.07 in 10.0 mi Calm Calm - N/A   Clear
7:54 AM 64.0 °F - 57.9 °F 80% 30.08 in 10.0 mi Calm Calm - N/A   Clear
8:54 AM 69.1 °F - 62.1 °F 78% 30.09 in 10.0 mi ENE 5.8 mph - N/A   Clear
9:54 AM 72.0 °F - 60.1 °F 66% 30.10 in 10.0 mi ENE 3.5 mph - N/A   Clear
10:54 AM 73.0 °F - 60.1 °F 64% 30.10 in 10.0 mi Variable 3.5 mph - N/A   Clear
11:54 AM 75.0 °F - 59.0 °F 57% 30.11 in 10.0 mi Calm Calm - N/A   Overcast
12:54 PM 75.9 °F - 60.1 °F 58% 30.11 in 10.0 mi SW 3.5 mph - N/A   Mostly Cloudy
1:54 PM 80.1 °F 81.1 °F 61.0 °F 52% 30.09 in 10.0 mi NW 8.1 mph - N/A   Mostly Cloudy
2:54 PM 78.1 °F - 60.1 °F 54% 30.08 in 10.0 mi WNW 8.1 mph - N/A   Mostly Cloudy
3:54 PM 77.0 °F - 61.0 °F 58% 30.08 in 10.0 mi North 6.9 mph - N/A   Partly Cloudy
4:54 PM 80.1 °F 81.2 °F 62.1 °F 54% 30.07 in 10.0 mi NNW 8.1 mph - N/A   Scattered Clouds
5:54 PM 75.0 °F - 61.0 °F 62% 30.07 in 10.0 mi NE 9.2 mph - N/A   Overcast
6:54 PM 73.9 °F - 62.1 °F 66% 30.07 in 10.0 mi NE 8.1 mph - N/A   Mostly Cloudy
7:54 PM 70.0 °F - 57.9 °F 65% 30.09 in 10.0 mi NE 8.1 mph 17.3 mph N/A   Overcast
8:54 PM 69.1 °F - 55.9 °F 63% 30.09 in 10.0 mi ENE 8.1 mph - 0.00 in   Overcast
9:54 PM 68.0 °F - 53.1 °F 59% 30.11 in 10.0 mi East 4.6 mph - N/A   Overcast
10:54 PM 66.9 °F - 54.0 °F 63% 30.11 in 10.0 mi ENE 5.8 mph - N/A   Overcast
11:54 PM 63.0 °F - 57.9 °F 84% 30.12 in 10.0 mi NE 4.6 mph - 0.03 in Rain Light Rain